Overview Statistics Trail Chart Weather Telemetry Raw packets
 

This is the latest recevied weather packets stored in our database for station/object KD8DNO-13. If no packets are shown the sender has not sent any weather packets the latest 10 day(s).

<< 84 85 86 87 88 89 90 >>
Time Temp. Humidity Pressure Rain* Wind** Luminosity Snow
1787943783 25° C 68% 1022.3 hPa 0 mm - - -
1787943484 25.56° C 64% 1022.3 hPa 0 mm - - -
1787943183 26.67° C 61% 1022.3 hPa 0 mm - - -
1787942883 26.67° C 59% 1022.3 hPa 0 mm - - -
1787942583 26.67° C 66% 1022.3 hPa 0 mm - - -
1787942283 25° C 67% 1022.3 hPa 0 mm - - -
1787941983 25.56° C 67% 1022.3 hPa 0 mm - - -
1787941683 26.11° C 65% 1022.3 hPa 0 mm - - -
1787941383 26.67° C 64% 1022.3 hPa 0 mm - - -
1787941083 26.11° C 67% 1022.3 hPa 0 mm - - -
1787940783 25.56° C 70% 1022.3 hPa 0 mm - - -
1787940483 26.11° C 71% 1022.3 hPa 0 mm - - -
1787940183 25.56° C 72% 1022.3 hPa 0 mm - - -
1787939883 24.44° C 70% 1022.3 hPa 0 mm - - -
1787939583 25° C 67% 1022.3 hPa 0 mm - - -
1787939283 25° C 68% 1022.3 hPa 0 mm - - -
1787938983 25° C 64% 1022.3 hPa 0 mm - - -
1787938683 26.67° C 67% 1022.3 hPa 0 mm - - -
1787938383 25.56° C 67% 1022.3 hPa 0 mm - - -
1787938083 24.44° C 70% 1022.3 hPa 0 mm - - -
1787937783 23.89° C 69% 1022.3 hPa 0 mm - - -
1787937483 23.89° C 70% 1022.3 hPa 0 mm - - -
1787937183 24.44° C 68% 1022.3 hPa 0 mm - - -
1787936883 25.56° C 66% 1022.3 hPa 0 mm - - -
1787936583 25.56° C 66% 1022.3 hPa 0 mm - - -

* Rain latest hour (hover to see other rain measurements)
** Current wind speed in m/s (hover to see current wind gust speed)